Location: North Evanston
(42.0634°N, 87.6976°W)
Time: 06:15:41
(UTC+00:00)

Injun/Solrad 3 - All Passes

Search period start: 10 May 2026 00:00
Search period end: 20 May 2026 00:00
Orbit: 868 x 988 km, 66.8° (Epoch: 9 May)

Date Brightness Start Highest point End Pass type
(mag) Time Alt. Az. Time Alt. Az. Time Alt. Az.
10 May - 00:59:40 10° WNW 01:02:48 14° NNW 01:05:59 10° N daylight
10 May - 04:42:12 10° NNE 04:42:47 10° NNE 04:43:22 10° NNE visible
10 May - 06:25:32 10° NNW 06:31:22 35° NE 06:37:13 10° ESE visible
10 May - 08:11:55 10° NW 08:18:03 48° WSW 08:24:10 10° S visible
10 May - 21:34:05 10° S 21:39:34 38° ESE 21:45:13 10° NE daylight
10 May - 23:20:25 10° WSW 23:26:02 39° NW 23:31:50 10° NNE daylight
11 May - 01:13:04 10° NW 01:14:29 11° NNW 01:15:53 10° NNW daylight
11 May - 04:51:32 10° N 04:54:29 13° NNE 04:57:26 10° ENE visible
11 May - 06:36:23 10° NNW 06:42:37 49° NE 06:48:50 10° SE visible
11 May - 08:23:19 10° NW 08:28:53 32° WSW 08:34:26 10° SSW visible
11 May - 21:44:34 10° SSW 21:50:25 59° ESE 21:56:31 10° NE daylight
11 May - 23:32:12 10° WSW 23:37:20 28° NW 23:42:39 10° NNE daylight
12 May - 05:01:56 10° N 05:06:05 17° NE 05:10:15 10° ENE visible
12 May - 06:47:19 10° NNW 06:53:46 71° ENE 07:00:11 10° SE visible
12 May - 08:35:03 10° WNW 08:39:38 21° WSW 08:44:13 10° SSW visible
12 May - 20:13:10 10° SE 20:15:54 13° E 20:18:40 10° ENE daylight
12 May - 21:55:23 10° SSW 22:01:23 88° SE 22:07:38 10° NNE daylight
12 May - 23:44:17 10° W 23:48:45 21° NW 23:53:20 10° N daylight
13 May - 05:12:33 10° N 05:17:34 23° NE 05:22:36 10° E visible
13 May - 06:58:21 10° NNW 07:04:48 81° WSW 07:11:15 10° SSE visible
13 May - 08:47:34 10° WNW 08:50:18 13° W 08:53:02 10° SW visible
13 May - 20:22:09 10° SSE 20:26:33 22° ESE 20:31:04 10° ENE daylight
13 May - 22:06:28 10° SW 22:12:27 64° WNW 22:18:39 10° NNE daylight
13 May - 23:56:44 10° WNW 00:00:17 15° NW 00:03:53 10° N daylight
14 May - 05:23:17 10° NNW 05:28:57 32° NE 05:34:38 10° ESE visible
14 May - 07:09:30 10° NW 07:15:46 55° WSW 07:22:00 10° S visible
14 May - 20:32:00 10° S 20:37:18 33° ESE 20:42:45 10° NE daylight
14 May - 22:17:53 10° WSW 22:23:37 44° NW 22:29:34 10° NNE daylight
15 May - 00:09:44 10° NW 00:11:54 12° NNW 00:14:06 10° N daylight
15 May - 03:49:30 10° N 03:51:56 12° NNE 03:54:23 10° NE visible
15 May - 05:34:05 10° NNW 05:40:14 44° NE 05:46:21 10° ESE visible
15 May - 07:20:50 10° NW 07:26:38 36° WSW 07:32:24 10° S visible
15 May - 20:42:21 10° S 20:48:07 51° ESE 20:54:07 10° NE daylight
15 May - 22:29:33 10° WSW 22:34:53 31° NW 22:40:24 10° NNE daylight
16 May - 03:59:45 10° N 04:03:34 16° NE 04:07:23 10° ENE visible
16 May - 05:45:00 10° NNW 05:51:24 63° ENE 05:57:47 10° SE visible
16 May - 07:32:26 10° NW 07:37:25 24° WSW 07:42:22 10° SSW visible
16 May - 19:12:01 10° ESE 19:13:41 11° E 19:15:23 10° E daylight
16 May - 20:53:03 10° SSW 20:59:03 78° ESE 21:05:18 10° NNE daylight
16 May - 22:41:32 10° W 22:46:16 23° NW 22:51:08 10° N daylight
17 May - 04:10:19 10° N 04:15:06 21° NE 04:19:52 10° E visible
17 May - 05:56:00 10° NNW 06:02:29 90° ENE 06:08:56 10° SSE visible
17 May - 07:44:35 10° WNW 07:48:06 15° WSW 07:51:36 10° SW visible
17 May - 19:20:18 10° SE 19:24:19 19° ESE 19:28:25 10° ENE daylight
17 May - 21:04:04 10° SW 21:10:05 72° WNW 21:16:21 10° NNE daylight
17 May - 22:53:51 10° WNW 22:57:45 17° NW 23:01:45 10° N daylight
18 May - 04:21:01 10° NNW 04:26:30 29° NE 04:32:00 10° ESE visible
18 May - 06:07:06 10° NW 06:13:28 62° WSW 06:19:47 10° SSE visible
18 May - 19:29:57 10° SSE 19:35:02 29° ESE 19:40:15 10° NE daylight
18 May - 21:15:21 10° SW 21:21:13 49° NW 21:27:17 10° NNE daylight
18 May - 23:06:37 10° WNW 23:09:21 13° NNW 23:12:07 10° N daylight
19 May - 02:47:34 10° N 02:49:23 11° NNE 02:51:11 10° NE visible
19 May - 04:31:49 10° NNW 04:37:49 39° NE 04:43:48 10° ESE visible
19 May - 06:18:22 10° NW 06:24:21 42° WSW 06:30:19 10° S visible
19 May - 19:40:10 10° S 19:45:50 45° ESE 19:51:42 10° NE daylight
19 May - 21:26:57 10° WSW 21:32:27 35° NW 21:38:08 10° NNE daylight
